Location: Peterborough
(44.3091°N, 78.3197°W)
Time: 06:13:36
(UTC-04:00)

Vanguard 2 - Pass Details

Date: 23 March 2023
Orbit: 552 x 2926 km, 32.9° (Epoch: 04 June)

Event Time Altitude Azimuth Distance (km) Brightness Sun altitude
Rises 04:03:24 0° 181° (S) 6,702 - -32.0°
Exits shadow 04:05:08 - 177° (S) 6,487 11.9 -31.7°
Reaches altitude 10° 04:12:42 10° 156° (SSE) 5,728 11.8 -30.7°
Maximum altitude 04:17:56 12° 138° (SE) 5,454 11.9 -29.9°
Drops below altitude 10° 04:22:57 10° 120° (ESE) 5,453 12.1 -29.2°
Sets 04:30:56 0° 94° (E) 6,020 12.8 -28.0°
